Location: Islay
(41.3172°N, 105.1346°W)
Time: 18:48:35
(UTC+00:00)

ACS3 Solar Sail - Pass Details

Date: 22 April 2026
Orbit: 894 x 947 km, 97.2° (Epoch: 12 May)

Event Time Altitude Azimuth Distance (km) Brightness Sun altitude
Rises 08:10:10 0° 11° (N) 3,552 5.8 -34.0°
Reaches altitude 10° 08:12:35 10° 12° (NNE) 2,613 4.8 -33.8°
Enters shadow 08:17:07 57° 13° (NNE) 1,082 2.2 -33.5°
